Weather History for Faith, SD

Change the Weather History Date:

Friday, November 30, 2012

  Actual Average Record
Temperature  
Mean Temperature 28 °F 25 °F  
Max Temperature 39 °F 35 °F 55 °F (1998)
Min Temperature 17 °F 15 °F 0 °F (2006)
Degree Days  
Heating Degree Days 37 40  
Month to date heating degree days 900 984  
Since 1 July heating degree days 1634 1783  
Cooling Degree Days 0 0  
Month to date cooling degree days 0 0  
Year to date cooling degree days 971 635  
Moisture  
Dew Point 23 °F    
Average Humidity 82    
Maximum Humidity 100    
Minimum Humidity 64    
Precipitation  
Precipitation 0.00 in 0.00 in 0.07 in (2005)
Month to date precipitation 0.25 0.53  
Year to date precipitation 12.57 17.26  
Sea Level Pressure  
Sea Level Pressure 29.90 in    
Wind  
Wind Speed 13 mph (SSE)    
Max Wind Speed 25 mph    
Max Gust Speed 30 mph    
T = Trace of Precipitation, MM = Missing Value Source: NWS Daily Summary

Daily Weather History Graph

Daily Weather History Graph

Search for Another Location

Airport:

Trip Planner

Search our weather history database for the weather conditions in past years. The results will help you decide how hot, cold, wet, or windy it might be!

Date:

Astronomy

Nov. 30, 2012 Rise Set
Actual Time 7:05 AM MST 4:08 PM MST
Civil Twilight 6:32 AM MST 4:41 PM MST
Nautical Twilight 5:55 AM MST 5:17 PM MST
Astronomical Twilight 5:20 AM MST 5:53 PM MST
Moon 6:05 PM MST (11/30) 8:38 AM MST (11/30)
Length of Visible Light 10h 08m
Length of Day
9h 02m
Waning Gibbous, 96% of the Moon is Illuminated
Nov 30
Waning Gibbous
Dec 6
Last Quarter
Dec 13
New
Dec 19
First Quarter
Dec 28
Full

Hourly Weather History & Observations

Time (MST) Temp. Windchill Dew Point Humidity Pressure Visibility Wind Dir Wind Speed Gust Speed Precip Events Conditions
12:56 AM 17.1 °F 1.5 °F 15.1 °F 92% 30.11 in - South 17.3 mph - N/A   Unknown
1:56 AM 18.0 °F 4.8 °F 17.1 °F 96% 30.11 in - South 12.7 mph - N/A   Unknown
2:56 AM 18.0 °F 2.2 °F 16.0 °F 92% 30.07 in - SSE 18.4 mph - N/A   Unknown
3:56 AM 17.1 °F 1.5 °F 15.1 °F 92% 30.05 in - SSE 17.3 mph - N/A   Unknown
4:56 AM 18.0 °F 7.7 °F 16.0 °F 92% 30.06 in - SSE 8.1 mph - N/A   Unknown
5:56 AM 18.0 °F 5.4 °F 16.0 °F 92% 30.06 in - SSE 11.5 mph - N/A   Unknown
6:56 AM 19.0 °F 4.0 °F 17.1 °F 92% 30.05 in - SSE 17.3 mph - N/A   Unknown
7:56 AM 21.0 °F 9.9 °F 19.0 °F 92% 30.04 in - SE 10.4 mph - N/A   Unknown
8:56 AM 23.0 °F 7.6 °F 21.0 °F 92% 30.01 in - SSE 21.9 mph - N/A   Unknown
9:56 AM 26.1 °F 11.3 °F 24.1 °F 92% 29.96 in - SSE 23.0 mph 29.9 mph N/A   Unknown
10:56 AM 28.0 °F 18.6 °F 24.1 °F 85% 29.98 in - SE 10.4 mph - N/A   Unknown
11:56 AM 32.0 °F 24.8 °F 26.1 °F 79% 29.94 in - SE 8.1 mph - N/A   Unknown
12:56 PM 34.0 °F 25.0 °F 26.1 °F 73% 29.88 in - SE 12.7 mph - N/A   Unknown
1:56 PM 37.0 °F 28.9 °F 27.0 °F 67% 29.85 in - SSE 12.7 mph - N/A   Unknown
2:56 PM 36.0 °F 29.0 °F 27.0 °F 70% 29.83 in - SE 9.2 mph - N/A   Unknown
3:56 PM 34.0 °F 26.0 °F 27.0 °F 75% 29.79 in - SE 10.4 mph - N/A   Unknown
4:56 PM 33.1 °F - 26.1 °F 75% 29.78 in - North - - N/A   Unknown
5:56 PM 34.0 °F 28.8 °F 27.0 °F 75% 29.77 in - SE 5.8 mph - N/A   Unknown
6:56 PM 32.0 °F - 27.0 °F 82% 29.75 in - North - - N/A   Unknown
7:56 PM 30.9 °F - 26.1 °F 82% 29.74 in - North - - N/A   Unknown
8:56 PM 34.0 °F 24.2 °F 28.0 °F 79% 29.71 in - South 15.0 mph - N/A   Unknown
9:56 PM 36.0 °F - 28.0 °F 73% 29.71 in - North - - N/A   Unknown
10:56 PM 36.0 °F 31.1 °F 28.9 °F 76% 29.73 in - Variable 5.8 mph 16.1 mph N/A   Unknown
11:56 PM 32.0 °F 22.5 °F 26.1 °F 79% 29.73 in - West 12.7 mph 25.3 mph N/A   Unknown